Terminal Aerodrome Forecast
Issued by NWS Charleston, WV

Current Version | Previous Version | Graphics & Text | Print | Product List | Glossary On
Versions: 1 2 3 4 5 6 7 8 9 10 11 12 13 14 15 16 17 18 19 20 21 22 23
839
FTUS41 KRLX 200855 AAA
TAFHTS
TAF AMD
KHTS 200855Z 2009/2106 21007KT P6SM BKN030
     FM201500 22006G17KT P6SM BKN035
     FM202200 22005KT P6SM BKN025=

USA.gov is the U.S. government's official web portal to all federal, state and local government web resources and services.